Theta_e
311 311 311 311 311 311 311 311 312 311 311 311 312 312 314 317 315 315 314 314 317 323 321 316 318 325 327 327 327 329 325 336 336 340 340 340 344 343 343 342 342 342 342 340 336
310 310 310 310 310 310 310 311 311 312 311 311 312 313 315 318 316 316 315 314 315 319 321 317 319 325 326 326 326 325 323 330 334 338 341 344 344 344 344 342 340 340 341 340 336
309 309 309 309 309 310 310 310 311 311 311 311 312 313 316 317 320 328 315 317 317 319 319 320 321 325 326 325 328 334 336 335 339 341 344 343 341 344 343 343 341 341 340 340 340
307 307 308 308 308 309 309 310 311 311 311 311 312 313 316 317 325 326 322 320 320 318 318 324 324 324 322 324 329 336 337 338 338 341 342 341 340 342 342 343 341 341 341 341 339
307 307 307 307 308 308 309 310 311 311 311 311 312 313 317 318 319 326 326 323 320 319 317 323 325 325 322 325 334 333 335 336 338 341 342 339 338 341 342 341 338 341 341 341 339
307 307 307 307 308 308 309 310 311 311 311 312 313 314 318 324 322 327 322 319 317 317 318 324 325 324 324 325 324 331 335 337 338 341 341 341 340 342 343 342 342 342 342 341 340
308 307 307 307 308 308 309 310 310 311 312 312 314 315 318 320 326 325 324 317 316 317 321 325 325 323 324 323 325 330 337 336 336 336 339 341 342 341 342 342 341 341 341 339 333
311 309 308 308 308 308 309 310 311 311 312 313 316 316 318 321 323 325 325 317 316 317 322 323 322 321 324 325 330 336 335 338 336 335 335 337 343 340 341 341 341 332 332 332 331
316 314 309 308 308 308 310 311 313 313 313 317 317 321 324 324 324 327 326 318 316 317 319 321 321 322 324 326 330 335 339 339 338 335 335 336 343 340 340 340 339 331 332 332 333
317 316 314 309 308 308 310 316 319 319 320 320 319 324 324 324 326 326 326 320 320 321 321 321 322 320 318 325 331 339 339 337 336 336 336 337 337 338 340 339 339 331 331 333 334
318 318 315 310 308 308 313 319 318 322 317 319 321 321 325 324 325 324 325 323 323 321 319 321 318 320 321 324 331 335 335 335 334 336 337 336 336 335 340 339 338 332 331 333 334
318 318 315 311 308 308 313 319 318 317 316 318 319 319 320 322 323 325 325 323 322 318 320 318 319 319 321 323 329 333 334 334 337 336 335 335 336 334 336 338 336 334 332 333 334
318 318 315 312 309 310 319 319 319 318 318 319 317 319 320 322 323 325 325 324 320 319 319 318 321 321 323 323 327 328 330 334 336 336 337 338 338 338 337 339 337 335 333 333 334
318 317 316 313 309 312 319 319 318 317 320 323 321 319 320 322 324 325 323 323 320 318 318 318 320 322 323 325 325 325 325 328 331 339 340 336 341 331 336 341 339 338 334 334 334
318 318 317 317 312 312 317 318 317 318 319 326 322 321 321 322 323 324 324 321 319 320 318 318 320 321 323 325 325 326 326 325 326 336 329 339 333 334 341 343 341 341 336 334 334
316 317 317 317 315 311 318 318 318 321 321 329 321 320 320 322 323 322 323 321 321 319 318 318 322 320 321 322 323 325 324 321 321 320 322 328 329 340 344 343 341 339 337 335 334
314 315 316 317 314 316 315 319 316 321 323 325 321 319 320 322 323 323 319 318 317 317 317 319 320 320 322 322 322 322 318 320 321 321 322 326 336 335 341 341 342 340 338 336 335
313 315 316 317 317 316 317 315 320 321 321 320 322 320 321 321 322 323 318 318 315 318 317 318 320 320 321 321 320 320 318 319 322 330 327 336 339 339 338 339 339 338 338 338 337
313 315 316 317 317 316 320 317 318 321 324 322 324 320 320 321 322 321 319 319 318 316 317 318 321 322 322 322 320 321 321 319 320 324 326 335 345 342 337 338 338 338 338 337 336
313 315 315 316 317 321 316 317 317 320 319 320 324 322 320 321 321 320 320 321 320 318 318 318 322 324 325 322 321 320 321 324 321 325 327 333 348 343 342 338 340 340 339 337 335
313 318 322 318 321 322 314 313 315 316 317 320 319 324 326 327 321 320 322 324 322 320 316 317 320 320 324 322 321 319 320 324 323 328 332 334 340 336 339 338 340 339 338 335 334
318 318 322 319 317 314 313 315 316 316 316 317 319 322 325 327 328 322 324 324 325 323 319 316 318 319 320 321 322 319 320 320 323 324 333 332 331 337 334 336 339 338 337 336 337
314 319 322 322 315 314 314 317 317 317 318 318 319 319 322 324 329 329 324 325 327 324 321 318 318 320 319 321 325 323 324 326 328 327 334 333 329 330 334 335 339 338 338 336 335
315 320 323 323 322 317 318 318 318 320 322 320 319 319 322 325 327 329 328 327 326 325 324 322 318 319 321 325 327 329 327 326 326 329 330 331 336 337 337 336 337 339 337 335 331
315 318 320 319 320 320 321 319 320 318 322 324 319 320 321 325 325 333 335 334 332 329 324 320 321 323 321 324 326 325 328 329 330 328 330 328 336 333 340 339 339 338 336 330 326
314 319 317 319 321 320 320 320 320 318 319 324 320 320 320 323 326 336 334 334 337 332 322 322 321 325 327 330 331 331 333 332 331 329 336 334 337 331 337 340 336 335 332 329 326
311 313 315 319 321 321 321 322 323 322 322 321 323 320 319 332 332 332 332 333 333 333 332 327 324 322 323 330 334 332 333 332 331 331 333 335 333 333 335 335 333 332 330 329 327
Wind_Speed
21 22 22 20 20 20 21 21 21 22 22 24 25 26 22 18 15 15 12 5 14 8 8 14 16 12 8 7 14 10 4 3 7 11 7 15 8 18 12 27 12 9 31 31 28
20 22 22 21 20 19 20 21 21 21 21 23 24 25 22 19 18 14 3 12 16 8 9 14 17 12 5 5 5 6 4 8 9 10 15 23 27 17 12 16 17 28 29 33 31
19 21 23 21 21 21 19 20 21 21 20 22 23 24 20 19 15 5 5 12 15 8 9 13 12 9 7 5 3 4 4 5 15 19 31 21 12 10 24 8 30 33 35 33 28
20 21 22 22 22 21 19 19 20 20 19 21 22 22 17 16 2 5 6 8 11 11 16 17 10 4 5 5 9 4 19 7 16 23 19 17 17 14 6 14 30 35 37 32 32
21 21 22 22 23 22 20 19 19 19 18 20 20 19 15 10 9 8 6 10 9 13 19 16 11 9 4 3 3 4 11 10 18 29 26 21 13 12 11 25 26 31 33 33 33
20 22 22 22 22 23 21 19 19 18 17 18 19 16 11 6 5 5 5 9 12 16 20 18 8 2 6 5 5 4 15 24 17 20 21 17 15 11 20 27 23 28 30 27 26
19 21 23 22 22 23 22 20 18 16 16 16 17 13 13 18 4 5 4 6 12 15 21 16 7 8 3 5 5 16 8 11 12 4 5 22 3 9 30 29 24 21 28 29 31
20 21 22 22 22 21 22 21 18 16 15 14 12 10 11 6 9 10 5 7 11 14 18 11 7 15 6 5 7 6 6 5 2 2 2 3 5 4 31 31 27 28 37 38 36
22 22 21 21 21 21 21 19 17 15 11 10 8 5 12 3 12 10 8 6 11 16 19 10 13 5 2 4 4 7 4 3 0 4 3 4 3 13 30 30 27 32 34 37 34
21 23 22 21 19 18 18 17 10 7 6 7 8 5 14 12 16 16 10 6 7 6 7 7 2 2 3 4 4 5 5 2 5 5 5 5 8 4 21 27 26 30 32 36 35
22 23 23 20 17 17 12 9 7 0 15 9 5 10 16 5 14 15 16 12 11 6 4 3 3 4 9 7 4 3 6 4 1 3 4 9 14 9 23 21 18 25 29 34 35
21 22 21 20 17 13 8 4 8 15 12 19 21 26 31 24 10 17 21 13 7 5 3 3 5 8 6 5 5 6 7 5 3 9 6 4 14 8 19 20 26 30 30 36 34
19 20 19 18 16 8 7 9 14 10 5 16 20 23 31 17 20 25 24 18 5 4 4 5 6 8 6 8 5 4 8 6 10 4 2 3 9 4 7 22 29 30 36 40 45
18 18 18 19 8 7 1 12 8 7 3 7 8 15 16 19 6 19 23 22 3 11 5 5 12 6 7 8 6 6 8 8 8 6 6 9 5 6 5 17 22 23 29 36 38
17 18 15 16 16 10 10 9 4 2 2 4 6 6 27 13 9 19 21 22 10 6 7 8 7 6 8 12 8 11 6 7 10 9 5 2 3 7 5 5 5 4 19 34 39
17 17 18 12 18 8 8 4 5 4 6 3 11 8 9 14 16 1 21 24 21 2 2 8 16 6 10 11 7 6 3 4 4 4 1 7 6 3 2 3 3 12 15 17 30
19 18 19 16 12 6 10 4 4 3 6 4 6 9 10 7 14 8 6 10 6 5 3 5 6 12 6 6 4 4 6 2 3 4 6 3 3 7 9 12 13 19 25 24 30
21 21 19 19 10 8 4 4 3 4 5 6 3 11 11 7 10 9 9 11 5 4 3 7 6 9 6 9 10 8 9 6 6 4 5 2 5 5 9 11 11 20 30 34 35
18 18 22 11 7 9 5 2 6 5 4 10 14 7 6 9 8 10 9 15 13 12 8 6 6 4 7 6 9 4 3 9 6 0 2 3 4 5 7 13 10 26 29 33 33
16 16 23 10 14 12 3 6 5 3 11 8 5 2 9 13 8 11 10 15 9 13 12 5 2 4 3 1 3 8 5 2 3 4 5 3 3 5 8 10 7 12 29 34 37
12 8 5 13 22 9 3 6 6 13 15 8 8 6 3 3 10 8 10 10 19 14 16 9 4 9 4 4 7 1 3 3 5 5 5 4 6 6 11 9 10 16 27 37 41
5 2 12 23 7 5 3 4 7 14 17 9 6 5 1 2 4 9 12 17 29 16 13 10 6 8 11 9 6 9 10 7 5 5 2 3 6 7 13 16 19 24 29 37 43
4 8 4 8 3 3 6 6 13 16 16 5 5 3 5 3 2 5 13 19 20 16 11 9 3 2 9 6 2 5 6 5 4 4 7 6 6 4 9 12 23 28 29 33 34
3 3 5 5 5 4 2 5 5 12 14 14 10 12 5 4 3 5 6 2 13 20 32 18 5 8 9 7 2 2 4 5 6 4 5 6 5 3 10 13 15 23 30 32 39
2 3 4 3 2 3 1 5 10 5 7 8 6 5 3 3 8 6 5 6 7 4 8 10 9 7 8 6 4 5 6 8 7 10 8 7 10 11 15 15 25 31 32 33 37
2 4 8 8 10 3 3 5 9 8 6 8 4 9 7 2 4 4 4 4 2 7 4 1 6 8 4 5 2 2 6 6 4 1 4 9 1 4 19 21 23 31 35 37 38
3 6 4 6 4 1 3 9 8 8 11 23 12 7 8 4 6 8 6 8 4 1 4 1 6 4 8 2 5 4 3 3 3 3 7 4 7 7 12 19 29 34 39 38 40
Wind_Direction
299 301 306 310 311 317 319 321 321 324 329 331 333 335 335 330 319 293 263 202 173 136 145 150 162 157 183 230 229 215 76 204 166 161 181 184 125 152 161 142 169 226 153 146 146
296 299 301 306 308 312 315 317 318 320 326 328 331 334 334 331 320 293 225 184 172 179 170 164 166 171 199 238 197 145 160 202 225 156 152 149 129 130 129 136 114 123 141 149 147
295 299 302 305 308 310 314 314 314 317 322 324 328 332 334 333 328 2 166 169 174 164 164 164 163 194 236 255 213 160 128 181 132 159 147 146 134 131 125 139 153 152 160 166 169
299 301 303 305 307 310 311 310 309 312 318 320 325 332 333 330 307 9 164 165 173 165 176 181 204 191 212 218 215 146 150 147 161 164 146 146 132 142 179 172 162 159 165 170 178
302 302 304 306 307 309 311 306 306 308 313 316 322 328 331 318 272 291 278 201 194 191 189 183 197 192 216 222 138 174 195 130 159 157 148 143 147 153 157 159 167 165 171 178 180
307 308 310 308 308 308 307 303 302 303 306 309 317 318 316 278 259 297 247 217 208 192 189 194 185 135 282 262 153 201 89 105 130 139 145 129 141 122 155 159 163 171 175 180 186
313 312 312 311 310 307 305 300 299 298 295 300 307 307 289 268 244 260 294 255 200 192 193 199 229 291 302 303 309 146 102 63 39 358 107 119 64 149 163 165 174 176 188 177 169
312 314 314 314 310 307 303 299 300 291 286 291 295 293 271 296 221 227 235 224 197 197 201 201 237 302 235 290 22 84 56 91 294 22 164 188 213 187 165 168 175 148 146 152 153
310 311 313 315 314 309 304 304 299 286 277 282 289 266 265 268 199 222 222 227 186 191 213 255 303 235 147 80 25 28 140 99 333 140 110 40 126 176 176 174 178 157 158 161 163
309 310 312 315 316 311 307 315 311 287 276 266 242 292 250 217 209 207 199 178 183 180 249 256 224 91 57 84 191 157 134 220 167 191 163 156 210 218 198 185 187 168 164 169 170
309 312 312 312 315 317 321 13 3 220 326 254 242 248 261 321 232 216 193 187 223 226 167 195 93 217 204 188 144 161 138 136 88 202 159 245 266 188 203 208 190 174 172 174 177
307 313 313 310 310 315 313 12 12 324 295 280 260 261 256 264 290 231 184 182 199 198 169 14 217 226 261 241 199 204 168 187 346 252 163 347 267 179 203 189 188 193 185 176 176
303 312 314 307 306 288 278 347 352 348 277 287 248 243 245 251 249 175 185 187 145 182 210 159 230 199 224 274 279 248 173 204 211 235 62 60 313 204 168 184 192 201 193 185 184
298 309 315 313 295 272 204 332 4 1 20 267 206 231 222 228 224 191 197 190 164 193 220 236 246 208 221 239 187 258 242 237 210 128 218 139 256 294 194 187 189 191 193 183 177
294 303 305 317 295 307 310 337 3 2 337 218 176 202 201 182 171 210 199 196 193 175 131 227 205 188 219 234 217 243 276 265 251 180 125 194 112 284 93 183 183 354 199 185 183
292 295 295 297 288 311 330 330 342 45 256 270 157 155 133 185 227 238 193 201 215 205 270 219 257 174 212 234 235 242 251 34 55 159 244 198 146 269 213 138 95 92 144 185 179
289 285 285 285 270 304 326 318 56 180 313 211 169 156 167 169 211 207 175 190 170 149 230 288 246 257 229 242 229 144 76 344 327 345 233 181 78 216 202 197 198 179 149 182 191
287 281 276 268 279 282 308 63 210 231 264 294 140 158 181 160 215 202 176 196 242 139 128 199 283 186 207 188 187 195 156 161 202 207 264 51 227 265 217 211 192 173 181 184 200
293 285 280 250 239 212 174 141 217 220 334 356 305 156 208 205 173 189 179 202 202 181 171 180 254 223 187 200 142 246 193 180 138 274 79 200 304 280 238 270 177 176 168 180 177
313 302 278 249 186 163 93 237 243 284 355 338 319 154 181 201 188 176 184 205 211 187 170 236 271 210 220 145 283 170 164 78 12 183 237 252 199 233 207 240 242 179 179 183 174
314 309 339 162 159 176 200 236 291 285 345 353 303 282 117 120 221 192 202 213 201 197 166 193 113 275 114 185 214 281 237 129 128 140 189 195 253 215 206 187 186 170 165 165 168
305 289 64 164 146 191 218 214 317 302 312 285 260 252 253 62 274 219 202 201 198 181 186 192 170 226 235 249 229 212 210 163 140 252 169 170 262 187 193 181 173 168 169 169 180
296 280 191 195 172 254 295 286 278 289 284 269 297 279 297 259 306 232 209 223 199 182 179 170 215 308 335 342 1 201 194 150 122 99 190 150 258 185 199 155 175 170 175 173 175
326 311 278 231 219 146 310 272 266 299 295 255 265 291 339 331 195 288 332 241 215 194 201 151 132 168 212 210 152 340 256 181 145 136 180 209 193 159 188 193 179 181 178 172 175
200 264 360 308 43 344 357 286 288 307 273 335 301 230 265 310 340 2 348 336 41 33 141 135 183 178 217 207 232 282 260 255 188 230 178 226 184 191 186 185 182 181 170 167 169
294 348 347 298 302 324 218 260 232 266 241 302 303 282 281 61 219 275 332 23 7 341 48 334 207 172 238 162 125 324 10 347 326 38 112 136 168 189 170 167 166 168 169 172 175
253 293 313 281 294 308 11 312 345 341 283 252 277 288 284 196 241 273 276 261 230 111 340 18 123 113 229 133 52 2 337 282 257 349 129 129 221 137 157 167 166 171 173 174 178